Regional Weather Roundup
Issued by NWS Kansas City/Pleasant Hill, MO

Home | Current Version | Previous Version | Text Only | Print | Product List | Glossary On
Versions: 1 2 3 4 5 6 7 8 9 10 11 12 13 14 15 16 17 18 19 20 21 22 23 24 25 26 27 28 29 30 31 32 33 34 35 36 37 38 39 40 41 42 43 44 45 46 47 48 49 50
000
ASUS43 KEAX 231604
RWREAX

WEATHER ROUNDUP FOR EASTERN KANSAS AND NORTHWEST MISSOURI
NATIONAL WEATHER SERVICE KANSAS CITY/PLEASANT HILL MO
1100 AM CDT WED APR 23 2014

KSZ040-057-103>105-MOZ028-029-037-043-231700-
...KANSAS CITY METROPOLITAN AREA...

CITY           SKY/WX    TMP DP  RH WIND       PRES   REMARKS
K.C. INTL      CLOUDY    57  35  43 SE17      29.97F
K.C. DOWNTOWN  CLOUDY    60  35  39 SE14      29.97F
LEES SUMMIT    CLOUDY    59  36  42 SE13G24   29.98F
OLATHE - IXD   CLOUDY    61  37  41 SE15G23   29.97F
OLATHE - OJC   CLOUDY    59  37  44 SE15G23   29.96F
LAWRENCE       PTSUNNY   63  38  39 SE16      29.96S

$$

MOZ001>008-011>017-020>025-030>033-038>040-044>046-053-054-231700-
...NORTHERN AND CENTRAL MISSOURI...

CITY           SKY/WX    TMP DP  RH WIND       PRES   REMARKS
ST. JOSEPH     CLOUDY    54  41  61 SE15      29.96F
MOSBY          FAIR      55  37  50 SE10G16   30.00F
WHITEMAN AFB   PTSUNNY   57  29  34 SE9       30.02F
CLINTON        CLOUDY    61  37  41 SE13      30.01F
SEDALIA        CLOUDY    59  36  42 SE13      30.04R
WARSAW         NOT AVBL
MARSHALL       LGT RAIN  59  39  47 SE9       30.05F
CHILLICOTHE      N/A     54  38  54 SE8       30.04F
MOBERLY        PTSUNNY   59  37  44 E15       30.08
KIRKSVILLE     CLOUDY    52  36  54 SE14      30.09S

$$

MOZ041-047>049-056>058-063>065-088>090-097-231700-
...EASTERN AND SOUTHERN MISSOURI...

CITY           SKY/WX    TMP DP  RH WIND       PRES   REMARKS
ST. LOUIS INTL MOSUNNY   58  36  43 E13       30.13S
SPIRIT OF STL  MOSUNNY   57  37  47 E12G18    30.10F
COLUMBIA       PTSUNNY   59  36  42 SE9       30.06F HAZE
JEFFERSON CITY CLOUDY    61  35  37 SE12      30.05F
MEXICO         MOSUNNY   57  39  51 SE10      30.09S
HANNIBAL       PTSUNNY   57  28  33 SE12      30.11F
ROLLA          MOSUNNY   62  35  36 E12       30.06S
LEBANON        MOSUNNY   64  32  29 SE14      30.05S
OSAGE BEACH    CLOUDY    61  32  33 SE7       30.04F
SPRINGFIELD    MOSUNNY   64  38  38 S18G26    30.01S
BRANSON        MOSUNNY   64  37  36 E13G23    30.05S
NEVADA         CLOUDY    61  41  48 SE15      29.98F
JOPLIN         PTSUNNY   68  42  38 SE16      29.95F
WEST PLAINS    SUNNY     63  35  35 S8        30.08S
MALDEN         SUNNY     68  37  32 E8        30.09S

$$

IAZ060-094-KSZ022-034>040-054-083-096-NEZ052-066-093-231700-
...KANSAS...SOUTHEAST NEBRASKA AND IOWA...

CITY           SKY/WX    TMP DP  RH WIND       PRES   REMARKS
TOPEKA         CLOUDY    60  38  43 SE14      29.93F
MANHATTAN      CLOUDY    60  42  51 SE16G24   29.84F
EMPORIA        MOSUNNY   69  39  33 SE21G26   29.88F
CHANUTE        MOSUNNY   67  42  40 SE15      29.93S
WICHITA        PTSUNNY   73  49  42 S21G33    29.83F
OMAHA          LGT RAIN  50  42  74 SE25G32   29.86F
LINCOLN        LGT RAIN  54  42  64 SE25G35   29.81F
FALLS CITY     CLOUDY    54  44  69 SE16G25   29.90F
LAMONI         LGT RAIN  52  33  48 SE10      30.02F
DES MOINES     CLOUDY    54  33  45 SE17      30.05S

$$




USA.gov is the U.S. government's official web portal to all federal, state and local government web resources and services.